DW6455 Orivesi FI current weather conditions

sailwx.info

Wind from 301 at 0 knots gusting 6

Air temperature 15.6° C
Dewpoint 10.3° C

Last reported at 2015-Aug-02 17:52 UTC.
Time now 2015-Aug-02 18:23 UTC

Location: N 61°39' E 024°21'.
View on Google Maps.

See reports from other nearby stations

  
Tides and Currents Weather Stations Pressure Air Temp Water Temp Dewpoint Dewpoint Depression Visibility Wind Speed Wind Dir Waves Ship Positions
date/time (UTC)wind fromknots sea level pressurealtimeterstation pressurevisibilityair tempwater tempwave heightnotes
2015-Aug-02 17:52 301 0 gusting 6 15.6
2015-Aug-02 17:47 261 15.6
2015-Aug-02 17:42 231 15.6
2015-Aug-02 17:37 253 16.1
2015-Aug-02 17:32 247 16.1
2015-Aug-02 17:27 236 16.7
2015-Aug-02 17:22 236 0 gusting 6 16.7
2015-Aug-02 17:17 300 0 gusting 6 17.2
2015-Aug-02 17:12 248 0 gusting 7 17.2
2015-Aug-02 17:07 252 0 gusting 7 17.8
2015-Aug-02 17:02 187 0 gusting 3 17.8
2015-Aug-02 16:57 246 0 gusting 3 17.8
2015-Aug-02 16:52 273 17.8
2015-Aug-02 16:47 312 17.8
2015-Aug-02 16:42 312 0 gusting 6 17.8
2015-Aug-02 16:37 312 0 gusting 6 17.8
2015-Aug-02 16:32 263 0 gusting 6 17.8
2015-Aug-02 16:27 220 0 gusting 6 17.8
2015-Aug-02 16:22 275 0 gusting 6 17.8
2015-Aug-02 16:17 275 0 gusting 12 17.8
2015-Aug-02 16:12 290 1 gusting 12 17.8
2015-Aug-02 16:07 222 1 gusting 12 17.8
2015-Aug-02 16:02 238 1 gusting 9 17.8
2015-Aug-02 15:57 346 2 gusting 9 17.8
2015-Aug-02 15:52 258 1 gusting 9 17.8
2015-Aug-02 15:47 269 1 gusting 9 17.8
2015-Aug-02 15:42 281 1 gusting 9 17.8
2015-Aug-02 15:37 240 1 gusting 8 17.8
2015-Aug-02 15:32 268 2 gusting 8 17.8
2015-Aug-02 15:27 300 2 gusting 9 18.3
2015-Aug-02 15:22 279 2 gusting 11 18.3
2015-Aug-02 15:17 274 3 gusting 11 18.3
2015-Aug-02 15:12 273 1 gusting 11 18.3
2015-Aug-02 15:07 228 1 gusting 11 18.3
2015-Aug-02 15:02 319 2 gusting 11 18.3
2015-Aug-02 14:57 299 1 gusting 8 18.3
2015-Aug-02 14:52 290 2 gusting 8 18.3
2015-Aug-02 14:47 269 1 gusting 11 18.3
2015-Aug-02 14:42 273 1 gusting 11 18.9
2015-Aug-02 14:37 293 2 gusting 11 18.9
2015-Aug-02 14:32 277 2 gusting 11 18.9
2015-Aug-02 14:27 304 2 gusting 7 18.9
2015-Aug-02 14:22 221 2 gusting 8 18.9
2015-Aug-02 14:17 273 2 gusting 8 19.4
2015-Aug-02 14:12 209 2 gusting 9 18.9
2015-Aug-02 14:07 296 2 gusting 9 18.9
2015-Aug-02 14:02 282 1 gusting 10 18.9
2015-Aug-02 13:57 257 1 gusting 12 18.9
2015-Aug-02 13:52 267 3 gusting 15 18.9
2015-Aug-02 13:47 313 4 gusting 15 19.4
2015-Aug-02 13:42 306 4 gusting 13 19.4
2015-Aug-02 13:37 206 3 gusting 13 20.0
2015-Aug-02 13:32 228 3 gusting 13 20.0
2015-Aug-02 13:27 259 3 gusting 11 20.0
2015-Aug-02 13:22 279 3 gusting 13 19.4
2015-Aug-02 13:17 344 4 gusting 13 19.4
2015-Aug-02 13:12 277 4 gusting 10 20.0
2015-Aug-02 13:07 225 3 gusting 12 20.0
2015-Aug-02 13:02 252 3 gusting 12 20.0
2015-Aug-02 12:57 234 4 gusting 13 20.0
2015-Aug-02 12:52 285 3 gusting 13 20.0
2015-Aug-02 12:47 290 2 gusting 13 20.0
2015-Aug-02 12:42 240 1 gusting 8 20.0
2015-Aug-02 12:37 244 1 gusting 11 20.0
2015-Aug-02 12:32 200 2 gusting 12 19.4
2015-Aug-02 12:27 215 3 gusting 12 19.4
2015-Aug-02 12:22 250 2 gusting 12 20.0
2015-Aug-02 12:17 232 2 gusting 9 20.0
2015-Aug-02 12:12 257 3 gusting 9 20.0
2015-Aug-02 12:07 223 2 gusting 13 20.6
2015-Aug-02 12:02 195 3 gusting 13 20.6
2015-Aug-02 11:57 269 3 gusting 13 20.0
2015-Aug-02 11:52 246 2 gusting 11 20.0
2015-Aug-02 11:47 207 3 gusting 11 20.0
2015-Aug-02 11:42 249 2 gusting 11 19.4
2015-Aug-02 11:37 253 1 gusting 9 19.4
2015-Aug-02 11:32 260 1 gusting 9 19.4
2015-Aug-02 11:27 251 2 gusting 11 19.4
2015-Aug-02 11:22 289 2 gusting 11 20.0
2015-Aug-02 11:17 244 2 gusting 11 20.6
2015-Aug-02 11:12 220 2 gusting 11 20.6
2015-Aug-02 11:07 202 3 gusting 11 20.6
2015-Aug-02 11:02 223 3 gusting 11 20.6
2015-Aug-02 10:57 302 1 gusting 10 20.6
2015-Aug-02 10:52 244 2 gusting 10 20.6
2015-Aug-02 10:47 280 2 gusting 11 20.6
2015-Aug-02 10:42 303 2 gusting 11 20.6
2015-Aug-02 10:37 224 3 gusting 10 20.6
2015-Aug-02 10:32 234 2 gusting 9 20.6
2015-Aug-02 10:27 244 2 gusting 8 20.6
2015-Aug-02 10:22 253 2 gusting 9 20.6
2015-Aug-02 10:17 304 2 gusting 11 20.0
2015-Aug-02 10:12 269 3 gusting 12 20.0
2015-Aug-02 10:07 295 3 gusting 12 20.6
2015-Aug-02 10:02 223 3 gusting 9 20.0
2015-Aug-02 09:57 261 3 gusting 9 20.0
2015-Aug-02 09:52 290 3 gusting 9 19.4
2015-Aug-02 09:47 248 2 gusting 9 19.4
2015-Aug-02 09:42 250 1 gusting 9 18.9
2015-Aug-02 09:37 260 1 gusting 9 18.9
2015-Aug-02 09:32 220 2 gusting 10 19.4
2015-Aug-02 09:27 287 3 gusting 10 19.4
2015-Aug-02 09:22 227 3 gusting 12 19.4
2015-Aug-02 09:17 257 3 gusting 12 19.4
2015-Aug-02 09:12 216 3 gusting 12 19.4
2015-Aug-02 09:07 232 2 gusting 8 18.9
2015-Aug-02 09:02 237 2 gusting 13 18.9
2015-Aug-02 08:57 302 3 gusting 13 18.9
2015-Aug-02 08:52 279 4 gusting 13 18.9
2015-Aug-02 08:47 283 3 gusting 12 19.4
2015-Aug-02 08:42 248 3 gusting 10 19.4
2015-Aug-02 08:37 013 3 gusting 13 19.4
2015-Aug-02 08:32 228 3 gusting 13 20.0
2015-Aug-02 08:27 304 2 gusting 13 20.0
2015-Aug-02 08:22 213 2 gusting 9 20.0
2015-Aug-02 08:17 215 2 gusting 9 19.4
2015-Aug-02 08:12 265 2 gusting 7 19.4
2015-Aug-02 08:07 198 1 gusting 13 19.4
2015-Aug-02 08:02 252 2 gusting 13 18.9
2015-Aug-02 07:57 259 3 gusting 11 18.9
2015-Aug-02 07:52 204 2 gusting 11 18.9
2015-Aug-02 07:47 248 2 gusting 11 18.9
2015-Aug-02 07:42 234 2 gusting 11 18.9
2015-Aug-02 07:37 214 1 gusting 6 18.9
2015-Aug-02 07:32 199 0 gusting 8 18.3
2015-Aug-02 07:27 327 2 gusting 9 18.3
2015-Aug-02 07:22 227 3 gusting 9 18.3
2015-Aug-02 07:17 221 1 gusting 9 18.3
2015-Aug-02 07:12 277 1 gusting 6 18.3
2015-Aug-02 07:07 269 1 gusting 6 17.8
2015-Aug-02 07:02 236 1 gusting 6 17.8
2015-Aug-02 06:57 221 1 gusting 9 17.8
2015-Aug-02 06:52 249 2 gusting 9 17.8
2015-Aug-02 06:47 252 2 gusting 7 17.2
2015-Aug-02 06:42 219 1 gusting 6 17.2
2015-Aug-02 06:37 277 1 gusting 6 17.2
2015-Aug-02 06:32 284 0 gusting 6 16.7
2015-Aug-02 06:27 267 1 gusting 7 16.7
2015-Aug-02 06:22 277 2 gusting 7 16.7
2015-Aug-02 06:17 228 2 gusting 8 16.7
2015-Aug-02 06:12 242 1 gusting 8 16.7
2015-Aug-02 06:07 348 1 gusting 8 16.7
2015-Aug-02 06:02 218 2 gusting 8 16.7
2015-Aug-02 05:57 245 1 gusting 6 17.2
2015-Aug-02 05:52 318 1 gusting 6 17.2
2015-Aug-02 05:47 290 1 gusting 6 17.8
2015-Aug-02 05:42 273 1 gusting 6 17.8
2015-Aug-02 05:37 221 1 gusting 6 17.8
2015-Aug-02 05:32 248 0 gusting 5 17.2
2015-Aug-02 05:27 250 0 gusting 6 16.7
2015-Aug-02 05:22 190 0 gusting 6 16.1
2015-Aug-02 05:17 211 0 gusting 6 15.6
2015-Aug-02 05:12 224 1 gusting 6 15.0
2015-Aug-02 05:07 189 1 gusting 6 14.4
2015-Aug-02 05:02 243 1 gusting 6 13.3
2015-Aug-02 04:57 234 1 gusting 5 12.8
2015-Aug-02 04:52 219 0 gusting 4 11.7
2015-Aug-02 04:47 227 0 gusting 4 11.1
2015-Aug-02 04:42 249 0 gusting 4 11.1
2015-Aug-02 04:37 229 0 gusting 4 11.1
2015-Aug-02 04:32 183 0 gusting 4 10.6
2015-Aug-02 04:27 265 0 gusting 5 10.6
2015-Aug-02 04:22 226 0 gusting 5 10.6
2015-Aug-02 04:17 256 10.6
2015-Aug-02 04:12 221 10.0
2015-Aug-02 04:07 248 10.0
2015-Aug-02 04:02 248 10.0
2015-Aug-02 03:57 212 9.4
2015-Aug-02 03:52 212 9.4
2015-Aug-02 03:47 236 9.4
2015-Aug-02 03:42 236 9.4
2015-Aug-02 03:37 236 9.4
2015-Aug-02 03:32 236 9.4
2015-Aug-02 03:27 236 8.9
2015-Aug-02 03:22 236 8.9
2015-Aug-02 03:17 232 8.9
2015-Aug-02 03:12 232 8.9
2015-Aug-02 03:07 232 8.9
2015-Aug-02 03:02 234 8.9
2015-Aug-02 02:57 234 8.9
2015-Aug-02 02:52 234 8.9
2015-Aug-02 02:47 218 8.3
2015-Aug-02 02:42 218 8.3
2015-Aug-02 02:37 218 8.3
2015-Aug-02 02:32 217 8.3
2015-Aug-02 02:27 217 8.3
2015-Aug-02 02:22 218 8.9
2015-Aug-02 02:17 218 8.9
2015-Aug-02 02:12 217 8.9
2015-Aug-02 02:07 217 8.9
2015-Aug-02 02:02 217 8.9
2015-Aug-02 01:57 217 8.9
2015-Aug-02 01:52 217 8.9
2015-Aug-02 01:47 218 9.4
2015-Aug-02 01:42 218 9.4
2015-Aug-02 01:37 217 9.4
2015-Aug-02 01:32 217 9.4
2015-Aug-02 01:27 218 0 gusting 2 10.0
2015-Aug-02 01:22 218 0 gusting 2 10.0
2015-Aug-02 01:17 217 0 gusting 3 10.0
2015-Aug-02 01:12 228 0 gusting 3 10.0
2015-Aug-02 01:07 235 0 gusting 3 10.0
2015-Aug-02 01:02 272 0 gusting 2 10.6
2015-Aug-02 00:57 279 0 gusting 2 10.6
2015-Aug-02 00:52 278 0 gusting 2 10.6
2015-Aug-02 00:47 278 10.6
2015-Aug-02 00:42 298 10.6
2015-Aug-02 00:37 298 10.6
2015-Aug-02 00:32 298 11.1
2015-Aug-02 00:27 298 11.1
2015-Aug-02 00:22 298 11.1
2015-Aug-02 00:17 252 11.7
2015-Aug-02 00:12 258 11.7
2015-Aug-02 00:07 275 11.7
2015-Aug-02 00:02 294 11.7
2015-Aug-01 23:57 232 0 gusting 6 11.7
2015-Aug-01 23:52 237 0 gusting 7 11.7
2015-Aug-01 23:47 292 0 gusting 7 11.7
2015-Aug-01 23:42 280 0 gusting 7 11.7
2015-Aug-01 23:37 234 11.7
2015-Aug-01 23:32 231 0 gusting 8 11.7
2015-Aug-01 23:27 321 0 gusting 8 11.7
2015-Aug-01 23:22 272 0 gusting 8 11.7
2015-Aug-01 23:17 274 0 gusting 8 12.2
2015-Aug-01 23:12 281 12.2
2015-Aug-01 23:07 284 0 gusting 8 12.2
2015-Aug-01 23:02 275 0 gusting 6 12.2
2015-Aug-01 22:57 298 0 gusting 6 12.2
2015-Aug-01 22:52 302 0 gusting 6 12.2
2015-Aug-01 22:47 215 12.2
2015-Aug-01 22:42 213 0 gusting 8 12.2
2015-Aug-01 22:37 273 0 gusting 8 12.2
2015-Aug-01 22:32 212 0 gusting 6 12.2
2015-Aug-01 22:27 296 0 gusting 6 12.2
2015-Aug-01 22:22 280 12.2
2015-Aug-01 22:17 251 0 gusting 2 12.2
2015-Aug-01 22:12 250 0 gusting 6 12.2
2015-Aug-01 22:07 236 0 gusting 6 12.2
2015-Aug-01 22:02 230 0 gusting 4 12.2
2015-Aug-01 21:57 269 0 gusting 4 12.2
2015-Aug-01 21:52 221 12.2
2015-Aug-01 21:47 215 12.2
2015-Aug-01 21:42 215 12.2
2015-Aug-01 21:37 333 12.8
2015-Aug-01 21:32 291 12.8
2015-Aug-01 21:27 291 12.8
2015-Aug-01 21:22 238 12.8
2015-Aug-01 21:17 226 0 gusting 2 12.8
2015-Aug-01 21:12 226 0 gusting 2 12.8
2015-Aug-01 21:07 244 0 gusting 2 12.8
2015-Aug-01 21:02 244 0 gusting 3 12.8
2015-Aug-01 20:57 252 0 gusting 3 12.8
2015-Aug-01 20:52 254 0 gusting 3 12.8
2015-Aug-01 20:47 252 0 gusting 3 12.8
2015-Aug-01 20:42 232 12.8
2015-Aug-01 20:37 217 12.8
2015-Aug-01 20:32 336 13.3
2015-Aug-01 20:27 213 0 gusting 7 13.3
2015-Aug-01 20:22 213 0 gusting 7 13.3
2015-Aug-01 20:17 234 13.3
2015-Aug-01 20:12 216 13.3
2015-Aug-01 20:07 284 13.3
2015-Aug-01 20:02 331 13.3
2015-Aug-01 19:57 331 0 gusting 6 13.3
2015-Aug-01 19:52 262 0 gusting 3 13.3
2015-Aug-01 19:47 252 13.3
2015-Aug-01 19:42 214 13.3
2015-Aug-01 19:37 218 0 gusting 8 13.3
2015-Aug-01 19:32 313 0 gusting 5 13.3
2015-Aug-01 19:27 249 0 gusting 5 13.3
2015-Aug-01 19:22 224 13.3
2015-Aug-01 19:17 275 0 gusting 5 13.3
2015-Aug-01 19:12 275 0 gusting 5 13.3
2015-Aug-01 19:07 253 13.3
2015-Aug-01 19:02 238 13.3
2015-Aug-01 18:57 237 13.3
2015-Aug-01 18:52 237 13.3
2015-Aug-01 18:47 237 0 gusting 6 13.3
2015-Aug-01 18:42 282 0 gusting 6 13.3
2015-Aug-01 18:37 239 13.3
2015-Aug-01 18:32 330 13.9
2015-Aug-01 18:27 288 0 gusting 6 13.9
2015-Aug-01 18:22 238 0 gusting 3 13.9
2015-Aug-01 18:17 226 13.9
2015-Aug-01 18:12 287 0 gusting 9 13.9
2015-Aug-01 18:07 300 0 gusting 9 13.9
2015-Aug-01 18:02 355 0 gusting 6 13.9
2015-Aug-01 17:57 253 0 gusting 6 13.9
2015-Aug-01 17:52 251 0 gusting 6 13.9
2015-Aug-01 17:47 334 0 gusting 6 13.9
2015-Aug-01 17:42 221 0 gusting 7 13.9
2015-Aug-01 17:37 292 0 gusting 7 13.9
2015-Aug-01 17:32 222 0 gusting 9 13.9
2015-Aug-01 17:27 288 1 gusting 9 13.9
2015-Aug-01 17:22 271 1 gusting 6 13.9
2015-Aug-01 17:17 187 1 gusting 6 13.9
2015-Aug-01 17:12 276 0 gusting 11 13.9
2015-Aug-01 17:07 286 0 gusting 11 14.4
2015-Aug-01 17:02 340 1 gusting 10 14.4
2015-Aug-01 16:57 236 1 gusting 10 14.4
2015-Aug-01 16:52 248 0 gusting 6 14.4
2015-Aug-01 16:47 338 0 gusting 6 14.4
2015-Aug-01 16:42 271 1 gusting 9 14.4
2015-Aug-01 16:37 144 1 gusting 9 14.4
2015-Aug-01 16:32 290 0 gusting 12 14.4
2015-Aug-01 16:27 207 0 gusting 12 14.4
2015-Aug-01 16:22 255 1 gusting 12 14.4
2015-Aug-01 16:17 303 1 gusting 12 14.4
2015-Aug-01 16:12 283 1 gusting 5 14.4
2015-Aug-01 16:07 240 0 gusting 8 14.4
2015-Aug-01 16:02 334 1 gusting 8 14.4
2015-Aug-01 15:57 302 1 gusting 8 14.4
2015-Aug-01 15:52 311 2 gusting 8 14.4
2015-Aug-01 15:47 297 2 gusting 8 14.4
2015-Aug-01 15:42 265 1 gusting 6 15.0
2015-Aug-01 15:37 275 1 gusting 6 15.0
2015-Aug-01 15:32 277 1 gusting 3 15.0
2015-Aug-01 15:27 310 0 gusting 3 15.0
2015-Aug-01 15:22 319 15.0
2015-Aug-01 15:17 296 0 gusting 6 15.0
2015-Aug-01 15:12 234 0 gusting 6 15.0
2015-Aug-01 15:07 234 0 gusting 6 15.0
2015-Aug-01 15:02 300 0 gusting 6 15.0
2015-Aug-01 14:57 301 0 gusting 6 15.6
2015-Aug-01 14:52 265 0 gusting 6 15.6
2015-Aug-01 14:47 244 0 gusting 6 15.6
2015-Aug-01 14:42 290 0 gusting 6 15.6
2015-Aug-01 14:37 312 0 gusting 6 15.6
2015-Aug-01 14:32 248 0 gusting 11 15.6
2015-Aug-01 14:27 252 1 gusting 11 15.6
2015-Aug-01 14:22 316 1 gusting 11 15.6
2015-Aug-01 14:17 304 1 gusting 10 15.6
2015-Aug-01 14:12 290 2 gusting 10 15.6
2015-Aug-01 14:07 270 1 gusting 9 15.6
2015-Aug-01 14:02 283 1 gusting 4 15.6
2015-Aug-01 13:57 16.1
2015-Aug-01 13:52 325 0 gusting 7 16.1
2015-Aug-01 13:47 270 0 gusting 7 16.1
2015-Aug-01 13:42 313 1 gusting 7 16.1
2015-Aug-01 13:37 273 0 gusting 11 16.1
2015-Aug-01 13:32 285 1 gusting 6 16.7
2015-Aug-01 13:27 332 1 gusting 6 16.7
2015-Aug-01 13:22 233 0 gusting 6 16.7
2015-Aug-01 13:17 236 1 gusting 7 16.7
2015-Aug-01 13:12 263 2 gusting 7 16.7
2015-Aug-01 13:07 241 2 gusting 7 16.7
2015-Aug-01 13:02 246 1 gusting 11 16.7
2015-Aug-01 12:57 299 0 gusting 11 16.7
2015-Aug-01 12:52 202 1 gusting 11 16.7
2015-Aug-01 12:47 278 1 gusting 11 16.7
2015-Aug-01 12:42 246 0 gusting 6 16.7
2015-Aug-01 12:37 212 0 gusting 6 16.7
2015-Aug-01 12:32 300 0 gusting 6 16.7
2015-Aug-01 12:27 233 0 gusting 6 16.7
2015-Aug-01 12:22 261 0 gusting 8 16.7
2015-Aug-01 12:17 254 1 gusting 8 16.7
2015-Aug-01 12:12 212 1 gusting 8 16.7
2015-Aug-01 12:07 242 1 gusting 6 16.7
2015-Aug-01 12:02 269 0 gusting 6 16.7
2015-Aug-01 11:57 267 0 gusting 6 17.2
2015-Aug-01 11:52 226 0 gusting 9 17.2
2015-Aug-01 11:47 230 1 gusting 9 17.2
2015-Aug-01 11:42 165 1 gusting 9 17.2
2015-Aug-01 11:37 285 0 gusting 6 17.2
2015-Aug-01 11:32 255 0 gusting 8 17.2
2015-Aug-01 11:27 223 0 gusting 8 17.2
2015-Aug-01 11:22 269 1 gusting 8 17.2
2015-Aug-01 11:17 248 2 gusting 8 17.2
2015-Aug-01 11:12 276 1 gusting 6 17.2
2015-Aug-01 11:07 260 0 gusting 12 17.2
2015-Aug-01 11:02 268 1 gusting 12 17.2
2015-Aug-01 10:57 240 2 gusting 12 17.2
2015-Aug-01 10:52 260 2 gusting 7 17.2
2015-Aug-01 10:47 301 1 gusting 7 17.8
2015-Aug-01 10:42 288 1 gusting 7 17.8
2015-Aug-01 10:37 317 1 gusting 7 17.8
2015-Aug-01 10:32 262 0 gusting 8 18.3
2015-Aug-01 10:27 236 1 gusting 8 18.3
2015-Aug-01 10:22 288 2 gusting 6 17.8
2015-Aug-01 10:17 225 1 gusting 6 17.8
2015-Aug-01 10:12 017 1 gusting 6 17.8
2015-Aug-01 10:07 253 0 gusting 6 17.8
2015-Aug-01 10:02 269 1 gusting 7 17.8
2015-Aug-01 09:57 255 0 gusting 7 17.8
2015-Aug-01 09:52 300 0 gusting 7 17.2
2015-Aug-01 09:47 244 0 gusting 7 17.2
2015-Aug-01 09:42 300 0 gusting 7 17.2
2015-Aug-01 09:37 234 0 gusting 7 17.2
2015-Aug-01 09:32 347 0 gusting 6 17.2
2015-Aug-01 09:27 238 0 gusting 6 17.2
2015-Aug-01 09:22 256 0 gusting 6 17.2
2015-Aug-01 09:17 289 0 gusting 6 16.7
2015-Aug-01 09:12 310 0 gusting 7 16.7
2015-Aug-01 09:07 252 1 gusting 7 17.2
2015-Aug-01 09:02 313 1 gusting 7 17.2
2015-Aug-01 08:57 304 1 gusting 7 17.2
2015-Aug-01 08:52 219 1 gusting 7 17.2
2015-Aug-01 08:47 240 1 gusting 7 16.7
2015-Aug-01 08:42 186 1 gusting 6 16.7
2015-Aug-01 08:37 308 0 gusting 6 16.7
2015-Aug-01 08:32 311 0 gusting 6 16.7
2015-Aug-01 08:27 238 0 gusting 6 16.7
2015-Aug-01 08:22 247 0 gusting 5 16.7
2015-Aug-01 08:17 205 0 gusting 5 16.1
2015-Aug-01 08:12 215 0 gusting 6 16.1
2015-Aug-01 08:07 314 0 gusting 6 15.6
2015-Aug-01 08:02 302 1 gusting 5 15.6
2015-Aug-01 07:57 264 0 gusting 5 15.0
2015-Aug-01 07:52 245 0 gusting 6 15.0
2015-Aug-01 07:47 258 0 gusting 6 15.0
2015-Aug-01 07:42 322 0 gusting 6 14.4
2015-Aug-01 07:37 294 0 gusting 6 14.4
2015-Aug-01 07:32 282 0 gusting 5 14.4
2015-Aug-01 07:27 232 0 gusting 5 14.4
2015-Aug-01 07:22 266 0 gusting 5 14.4
2015-Aug-01 07:17 245 0 gusting 5 14.4
2015-Aug-01 07:12 270 0 gusting 6 14.4
2015-Aug-01 07:07 246 0 gusting 6 14.4
2015-Aug-01 07:02 281 0 gusting 6 14.4
2015-Aug-01 06:57 304 0 gusting 6 14.4
2015-Aug-01 06:52 267 0 gusting 6 14.4
2015-Aug-01 06:47 340 13.9
2015-Aug-01 06:42 196 0 gusting 3 13.9
2015-Aug-01 06:37 254 0 gusting 3 13.9
2015-Aug-01 06:32 257 0 gusting 3 13.9
2015-Aug-01 06:27 226 0 gusting 3 13.9
2015-Aug-01 06:22 250 13.9
2015-Aug-01 06:17 288 13.9
2015-Aug-01 06:12 288 13.9
2015-Aug-01 06:07 248 13.9
2015-Aug-01 06:02 249 13.9
2015-Aug-01 05:57 240 13.3
2015-Aug-01 05:52 284 13.3
2015-Aug-01 05:47 284 13.3
2015-Aug-01 05:42 270 13.3
2015-Aug-01 05:37 200 13.3
2015-Aug-01 05:32 248 13.3
2015-Aug-01 05:27 249 13.3
2015-Aug-01 05:22 229 13.3
2015-Aug-01 05:17 271 13.3
2015-Aug-01 05:12 271 13.3
2015-Aug-01 05:07 271 13.3
2015-Aug-01 05:02 272 13.3
2015-Aug-01 04:57 272 0 gusting 3 13.3
2015-Aug-01 04:52 262 13.3
2015-Aug-01 04:47 202 13.3
2015-Aug-01 04:42 322 13.3
2015-Aug-01 04:37 294 12.8
2015-Aug-01 04:32 294 12.8
2015-Aug-01 04:27 294 12.8
2015-Aug-01 04:22 277 12.8
2015-Aug-01 04:17 322 12.8
2015-Aug-01 04:12 227 12.8
2015-Aug-01 04:07 227 12.8
2015-Aug-01 04:02 227 12.8
2015-Aug-01 03:57 227 12.2
2015-Aug-01 03:52 227 12.2
2015-Aug-01 03:47 227 12.2
2015-Aug-01 03:42 227 12.2
2015-Aug-01 03:37 227 12.2
2015-Aug-01 03:32 219 12.2
2015-Aug-01 03:27 269 12.2
2015-Aug-01 03:22 269 12.2
2015-Aug-01 03:17 269 12.2
2015-Aug-01 03:12 269 12.2
2015-Aug-01 03:07 269 12.2
2015-Aug-01 03:02 269 11.7
2015-Aug-01 02:57 270 11.7
2015-Aug-01 02:52 270 11.7
2015-Aug-01 02:47 269 11.7
2015-Aug-01 02:42 269 11.7
2015-Aug-01 02:37 269 11.7
2015-Aug-01 02:32 269 11.7
2015-Aug-01 02:27 263 11.7
2015-Aug-01 02:22 271 11.7
2015-Aug-01 02:17 259 11.7
2015-Aug-01 02:12 263 11.7
2015-Aug-01 02:07 263 11.7
2015-Aug-01 02:02 263 11.7
2015-Aug-01 01:57 263 11.7
2015-Aug-01 01:52 281 11.7
2015-Aug-01 01:47 242 11.7
2015-Aug-01 01:42 241 11.7
2015-Aug-01 01:37 241 11.7
2015-Aug-01 01:32 242 11.7
2015-Aug-01 01:27 241 11.1
2015-Aug-01 01:22 242 11.1
2015-Aug-01 01:17 242 11.1
2015-Aug-01 01:12 241 11.1
2015-Aug-01 01:07 242 11.1
2015-Aug-01 01:02 241 11.1
2015-Aug-01 00:57 242 11.1
2015-Aug-01 00:52 242 11.1
2015-Aug-01 00:47 241 11.1
2015-Aug-01 00:42 241 11.1
2015-Aug-01 00:37 241 11.1
2015-Aug-01 00:32 241 10.6
2015-Aug-01 00:27 241 10.6
2015-Aug-01 00:22 241 10.6
2015-Aug-01 00:17 242 10.6
2015-Aug-01 00:12 242 10.6
2015-Aug-01 00:07 241 10.6
2015-Aug-01 00:02 242 10.0
2015-Jul-31 23:57 241 10.0
2015-Jul-31 23:52 241 10.0
2015-Jul-31 23:47 241 10.0
2015-Jul-31 23:42 241 9.4
2015-Jul-31 23:37 242 9.4
2015-Jul-31 23:32 242 9.4
2015-Jul-31 23:27 242 9.4
2015-Jul-31 23:22 241 9.4
2015-Jul-31 23:17 241 9.4
2015-Jul-31 23:12 241 9.4
2015-Jul-31 23:07 241 9.4
2015-Jul-31 23:02 241 9.4
2015-Jul-31 22:57 241 9.4
2015-Jul-31 22:52 241 9.4
2015-Jul-31 22:47 241 9.4
2015-Jul-31 22:42 227 10.0
2015-Jul-31 22:37 226 10.0
2015-Jul-31 22:32 227 10.0
2015-Jul-31 22:27 226 10.0
2015-Jul-31 22:22 226 10.6
2015-Jul-31 22:17 226 10.6
2015-Jul-31 22:12 227 10.6
2015-Jul-31 22:07 227 10.6
2015-Jul-31 22:02 227 10.6
2015-Jul-31 21:57 226 10.6
2015-Jul-31 21:52 226 11.1
2015-Jul-31 21:47 227 11.1
2015-Jul-31 21:42 226 11.1
2015-Jul-31 21:37 227 11.1
2015-Jul-31 21:32 226 11.1
2015-Jul-31 21:27 226 11.1
2015-Jul-31 21:22 227 11.1
2015-Jul-31 21:17 227 0 gusting 4 11.1
2015-Jul-31 21:12 227 0 gusting 1 11.1
2015-Jul-31 21:07 275 11.1
2015-Jul-31 21:02 261 11.1
2015-Jul-31 20:57 261 11.1
2015-Jul-31 20:52 261 11.1
2015-Jul-31 20:47 019 11.1
2015-Jul-31 20:42 019 0 gusting 7 11.1
2015-Jul-31 20:37 310 0 gusting 7 11.1
2015-Jul-31 20:32 215 0 gusting 6 11.1
2015-Jul-31 20:27 248 0 gusting 6 11.1
2015-Jul-31 20:22 275 0 gusting 4 11.7
2015-Jul-31 20:17 320 0 gusting 4 11.7
2015-Jul-31 20:12 296 11.7
2015-Jul-31 20:07 305 0 gusting 5 11.7
2015-Jul-31 20:02 291 0 gusting 6 11.7
2015-Jul-31 19:57 269 11.1
2015-Jul-31 19:52 269 0 gusting 5 11.1
2015-Jul-31 19:47 273 11.1
2015-Jul-31 19:42 276 11.1
2015-Jul-31 19:37 279 11.7
2015-Jul-31 19:32 279 11.7
2015-Jul-31 19:27 279 11.7
2015-Jul-31 19:22 279 11.7
2015-Jul-31 19:17 279 11.7
2015-Jul-31 19:12 279 0 gusting 8 12.2
2015-Jul-31 19:07 277 0 gusting 8 12.2
2015-Jul-31 19:02 244 0 gusting 5 12.2
2015-Jul-31 18:57 236 0 gusting 5 12.2
2015-Jul-31 18:52 281 0 gusting 6 12.2
2015-Jul-31 18:47 297 0 gusting 6 12.2
2015-Jul-31 18:42 332 0 gusting 4 12.2
2015-Jul-31 18:37 309 12.2
2015-Jul-31 18:32 309 0 gusting 4 12.2
2015-Jul-31 18:27 236 12.2
2015-Jul-31 18:22 313 12.8
2015-Jul-31 18:17 311 12.8
2015-Jul-31 18:12 311 12.8
2015-Jul-31 18:07 311 13.3
2015-Jul-31 18:02 307 13.3